COSMOS 1275 DEB, 42211

Orbit data source: Space-Track

COSMOS 1275 DEB, 42211 is space debris in LEO originally from a launch on Thu, 04 Jun 1981 UTC launched from the Plesetsk Missile And Space Complex (PKMTR). Debris objects in space refer to the collection of defunct objects orbiting the Earth. Examples of debris include non-operational satellites, rocket bodies, and fragments generated from explosions, collisions, or faulty payload assembly.

Loading next visibility...
Identifier
42211, 1981-053UB
Orbit
LEO
Country
Flag of CISCIS
Related business
Manufacturer
Unknown
Mission
Spacecraft
Bus & Motor
Unknown
Mass
Unknown
Launch date (UTC)
1981-06-04 (45 years ago)
Launch vehicle
Unknown
Launch site
Plesetsk Missile And Space Complex (PKMTR)
Object type
Payload
Rocket body
Debris
Shape & HBR
Unknown shape, 0.1 m
Radar Cross Section
Small (<0.1 m²)

Expand to show TLE details & history
Last TLE update: 2 days ago

TLE from 2 days ago
0 COSMOS 1275 DEB
1 42211U 81053UB  26171.37110957  .00002088  00000-0  90408-3 0  9999
2 42211  82.8369  39.9337 0039866 233.6077 126.1426 14.23519442104026
Epoch: 2026-06-20T08:54Z
TLE epoch observation values (Epoch: 2026-06-20T08:54:23.866Z)
Latitude
-0.00008°
Longitude
-2.25245°
Altitude
833.427 km
Speed
7.427 km/s
True Right ascension
02h 39m 44s
True Declination
0° 00' 00"
Sunlit
Object was in daylight at epoch
Visualization orbit readout
Latitude
Unknown
Longitude
Unknown
Altitude
Unknown
Speed
Unknown
Apparent Right ascension
Unknown
Apparent Declination
Unknown
Sunlit
N/A
Visualization observer readout
Local Sidereal Time
14:40:15
Azimuth
Unknown
Elevation
Unknown
Doppler factor
Unknown
Orbital elements
Apogee altitude
839.219 km
Perigee altitude
781.902 km
Semi-major axis
7,188.698 km
Eccentricity
0.00399
Inclination
82.8369°
RAAN
39.9337°
Arg. of periapsis
233.6077°
True anomaly
126.51043°
Mean anomaly
126.1426°
Eccentric anomaly
126.32662°
Mean motion
3.56097 °/min
Orbital period
101.1 mins
BSTAR
0.00090408
Loading maneuver chart data...
Computing Atmospheric mass density...
Loading historical data...
Loading historical data...
Loading historical data...
Loading historical data...
Loading historical data...
Loading historical data...
Loading historical data...

Documentation

Showing up to 5 results
|